Showing default

IRNSS 1D, 40547

Orbit data source: Space-Track

IRNSS 1D, 40547 is a payload satellite owned by ISRO (IN) in GEO that was launched on Sat, 28 Mar 2015 UTC via a PSLV-XL launch vehicle from the Sirharikota (SRI). Payload-class satellites include a variety of spacecraft equipped with specific instruments for various scientific and technological missions. These include communications satellites like Starlink; space stations such as the ISS; scientific satellites like the Hubble; Earth observation satellites from companies like Planet Labs, Umbra, and HawkEye 360; GPS; miniature CubeSats for education and research; and military/defense satellites.

Not visible in the next 10 days
Identifier
40547, 2015-018A
Orbit
GEO
Country
Flag of ININ / IND
Related business
Manufacturer
ISRO SAC/Banga
Mission
Non-operational Civil Navigation
Bus & Motor
I1K, ISRO LAM
Mass
1,425 kg wet, 603 kg dry
Launch date (UTC)
2015-03-28 (11 years ago)
Launch vehicle
PSLV-XL
Launch site
Sirharikota (SRI)
Object type
Payload
Rocket body
Debris
Shape & HBR
Box + 2 Pan, 5.0 m
Radar Cross Section
6.961 m², Large (>1 m²)

Expand to show TLE details & history
Last TLE update: 2 days ago

TLE from 2 days ago
0 IRNSS 1D
1 40547U 15018A   26171.45143411 -.00000063  00000-0  00000+0 0  9994
2 40547  19.5661 238.8431 0007807 346.1194 320.3633  0.97958420 40939
Epoch: 2026-06-20T10:50Z
TLE epoch observation values (Epoch: 2026-06-20T10:50:03.907Z)
Latitude
-15.66557°
Longitude
115.70775°
Altitude
36,425.336 km
Speed
3.053 km/s
True Right ascension
12h 27m 33s
True Declination
-15° 39' 03"
Sunlit
Object was in daylight at epoch
Visualization orbit readout
Latitude
Unknown
Longitude
Unknown
Altitude
Unknown
Speed
Unknown
Apparent Right ascension
Unknown
Apparent Declination
Unknown
Sunlit
N/A
Visualization observer readout
Local Sidereal Time
21:37:02
Azimuth
Unknown
Elevation
Unknown
Doppler factor
Unknown
Orbital elements
Apogee altitude
36,482.161 km
Perigee altitude
36,415.291 km
Semi-major axis
42,826.863 km
Eccentricity
0.00078
Inclination
19.5661°
RAAN
238.8431°
Arg. of periapsis
346.1194°
True anomaly
320.30619°
Mean anomaly
320.3633°
Eccentric anomaly
320.33475°
Mean motion
0.24489 °/min
Orbital period
1,470.06 mins
BSTAR
0
Loading maneuver chart data...
Computing Atmospheric mass density...
Loading historical data...
Loading historical data...
Loading historical data...
Loading historical data...
Loading historical data...
Loading historical data...
Loading historical data...
Other satellites on launch #18 in the year 2015 (2015-03-28 UTC)

Documentation

Showing up to 5 results
|